Location: Arrast
(43.2937°N, 0.8493°W)
Time: 14:59:31
(UTC+00:00)

Daily predictions for brighter satellites

Satellite Brightness Start Highest point End
(mag) Time Altitude Azimuth Time Altitude Azimuth Time Altitude Azimuth
Cosmos 1605 Rocket 4.1 19:37:24 10° S 19:43:33 89° W 19:49:50 10° N
Cosmos 371 Rocket 4.4 19:43:12 10° NNW 19:47:48 45° WSW 19:52:22 10° S
Cosmos 1980 Rocket 3.8 19:47:30 10° N 19:51:50 21° NE 19:56:06 10° E
Okean 1 Rocket 4.0 19:48:08 10° SSE 19:51:52 29° E 19:55:40 10° NNE
ARIANE 6 FM1 Upper Stage 3.2 19:49:27 10° NW 19:53:19 52° SW 19:57:10 10° SSE
SL-08 R/B 4.2 19:49:22 10° NE 19:53:35 29° E 19:57:44 10° SSE
Cosmos 2084 4.2 19:51:15 10° SW 19:55:19 57° NW 19:59:25 10° NNE
SL-24 R/B 4.1 19:51:00 10° NNE 19:55:35 86° ESE 19:59:52 10° SSW
CZ-4 R/B 1.0 19:54:38 10° SSE 19:58:15 80° ENE 20:01:54 10° N
Meteor 2-3 Rocket 4.2 19:53:00 10° N 19:58:20 42° ENE 20:03:39 10° SE
CZ-4B R/B 3.9 19:57:19 10° SSE 20:01:18 84° W 20:05:21 10° NNW
ASTEX 1 3.4 19:59:26 10° SSE 20:04:21 78° E 20:09:20 10° N
SPOT 5 3.3 20:00:20 10° S 20:04:31 54° W 20:08:47 10° NNW
GEOS 3 Rocket 4.4 20:00:12 10° SSE 20:05:18 49° WSW 20:10:31 10° NW
CZ-4B DEB 4.2 20:00:21 10° SSE 20:05:51 79° ENE 20:11:24 10° NNW
Cosmos 2056 Rocket 3.8 20:02:00 10° SSW 20:07:24 78° WNW 20:12:48 10° NNE
CZ-4B R/B 3.4 20:02:40 10° SSE 20:08:13 60° ENE 20:13:46 10° N
Cosmos 1833 Rocket 2.7 20:02:47 10° SSW 20:08:23 86° ESE 20:14:01 10° NNE
CSL-04 Rocket 4.2 20:03:26 10° S 20:08:54 64° WSW 20:14:21 10° NNW
Cosmos 1110 Rocket 4.3 20:03:55 10° S 20:08:54 45° ESE 20:13:56 10° NNE
Cosmos 1624 Rocket 4.2 20:05:13 10° SSW 20:10:23 75° WNW 20:15:34 10° NNE
Terra 1.8 20:07:47 10° SSE 20:12:24 66° ENE 20:17:05 10° N
CBERS 1 LM4 rocket 4.5 20:08:08 10° SSE 20:12:57 69° ENE 20:17:59 10° N
Gbstr 26 Del rocket 4.5 20:09:21 10° NW 20:14:16 36° NNE 20:18:22 10° E
Sich 1 Rocket 3.9 20:10:32 10° SSE 20:14:39 44° E 20:18:48 10° NNE
SJ 16-02 3.3 20:18:02 10° NW 20:21:34 26° W 20:25:06 10° SSW
MetOp-B 4.1 20:17:37 10° SSE 20:22:58 82° ENE 20:28:21 10° NNW
PAYLOAD B 4.3 20:19:07 10° SSE 20:24:36 83° WSW 20:30:10 10° NNW
USA 229 DEB 4.1 20:19:24 10° NW 20:27:03 85° NE 20:34:05 16° SE
USA 229 4.1 20:19:27 10° NW 20:27:07 84° NE 20:34:07 16° SE
Cosmos 1743 3.6 20:25:33 10° NNE 20:27:53 20° ENE 20:28:34 19° E
Cosmos 44 Rocket 3.5 20:24:11 10° SSW 20:29:01 51° ESE 20:34:00 10° NE
ISS -3.4 20:27:05 10° SSW 20:30:15 41° SE 20:33:25 10° ENE
Cosmos 1459 Rocket 4.0 20:24:12 10° S 20:30:25 70° E 20:36:34 10° NNE
SKYMED 3 4.2 20:28:07 10° NNE 20:32:04 87° ESE 20:36:01 10° SSW
Cosmos 2100 Rocket 4.0 20:27:45 10° S 20:33:57 82° E 20:40:16 10° N
Ariane Rocket 4.4 20:32:21 15° ESE 20:34:58 23° ENE 20:38:53 10° NNE
ADEOS 3.6 20:32:33 11° SSE 20:37:32 85° WSW 20:42:46 10° NNW
ATLAS 2AS CENTAUR R/B 3.8 20:31:00 10° WSW 20:37:42 48° NW 20:44:17 10° NNE
Spot 2 Rocket 3.5 20:36:59 18° SSE 20:40:39 66° ENE 20:45:38 10° N
BREEZE-M DEB (TANK) 3.3 20:39:01 10° WNW 20:41:57 75° NNE 20:47:10 18° ESE
Cosmos 2151 Rocket 4.4 20:38:16 10° SSW 20:42:30 51° WNW 20:46:46 10° N
SL-4 R/B 1.8 20:38:56 10° WNW 20:42:47 84° SW 20:44:44 28° SE
MOS 1-B 4.4 20:39:56 18° SSE 20:44:15 67° ENE 20:50:01 10° N
Cosmos 2082 Rocket 2.8 20:40:45 16° SSE 20:44:34 34° ESE 20:49:40 10° NE
Okean 2 Rocket 3.5 20:40:25 10° SSW 20:44:51 67° W 20:49:20 10° N
Cosmos 1607 4.0 20:49:30 10° S 20:55:23 51° ESE 21:01:23 10° NE
Cosmos 2233 Rocket 4.2 20:51:19 19° SSE 20:55:34 51° E 21:01:32 10° NNE
Cosmos 2228 3.3 20:55:36 32° SE 20:56:57 43° E 21:00:52 10° NNE
Cosmos 292 Rocket 4.0 20:53:52 10° NNW 20:58:36 66° WSW 21:01:33 22° S
USA 186 1.1 20:58:27 68° SSE 20:58:44 87° ENE 21:01:25 10° N
Okean O Rocket 1.5 20:57:28 25° SSE 20:59:57 86° W 21:04:15 10° NNW
DELTA 2 R/B (1) 4.1 20:56:24 10° SW 21:01:25 35° SSE 21:03:11 28° ESE
ERS-1 Rocket 4.3 21:00:04 10° SSW 21:04:37 35° W 21:09:13 10° NNW
Tsikada Rocket 4.1 20:59:40 10° N 21:05:45 56° ENE 21:08:51 29° SE
CZ-4C R/B 1.9 21:02:21 10° SW 21:06:22 67° NW 21:11:29 10° NNE
Cosmos 1725 Rocket 4.0 21:00:18 10° S 21:06:36 90° NNE 21:12:53 10° N
Cosmos 1452 Rocket 3.5 21:01:57 10° SSW 21:07:11 86° WNW 21:12:27 10° NNE
COSMOS 2406 4.3 21:07:29 25° ESE 21:07:47 25° ESE 21:12:22 10° NE
Cosmos 1697 Rocket 3.3 21:02:41 10° NW 21:08:07 51° WSW 21:11:51 19° S
Cosmos 1741 Rocket 4.0 21:04:59 10° NNW 21:10:20 85° WSW 21:13:01 30° SSE
SL-16 R/B 3.9 21:07:58 10° N 21:12:09 21° NE 21:14:58 15° E
Okean-O 2.9 21:10:27 26° S 21:12:50 64° W 21:17:12 10° NNW
ATLAS 3B R/B 3.0 21:08:51 10° NW 21:16:32 69° WSW 21:20:47 27° SSE
CZ-4B R/B 3.4 21:19:07 40° SE 21:20:38 60° ENE 21:25:21 10° N
Cosmos 1892 Rocket 3.7 21:17:23 10° NNW 21:21:42 68° W 21:23:28 34° SSW
USA 245 4.3 21:18:49 31° SSE 21:21:45 84° ENE 21:27:40 10° NNW
Cosmos 1455 Rocket 3.6 21:19:52 16° SSW 21:23:15 57° W 21:27:37 10° N
Cosmos 1302 Rocket 3.8 21:21:11 19° SSW 21:24:53 83° ESE 21:30:05 10° NNE
Cosmos 2333 Rocket 3.8 21:20:41 10° N 21:25:07 23° NE 21:27:39 17° E
Cosmos 2016 Rocket 4.2 21:19:35 11° SSW 21:25:42 72° W 21:31:56 10° N
CZ-4B R/B 2.3 21:33:11 79° WSW 21:33:13 79° WSW 21:36:36 10° NNW
Cosmos 2061 Rocket 3.9 21:29:50 27° S 21:33:28 84° E 21:39:45 10° N
Cosmos 1782 3.3 21:32:58 33° SW 21:34:07 48° W 21:37:33 10° N
Cosmos 1544 Rocket 3.7 21:35:33 49° E 21:35:38 49° E 21:39:51 10° NNE
Cosmos 1980 Rocket 2.3 21:30:41 10° NNW 21:36:20 69° WSW 21:38:33 38° S
SPOT 3 Rocket 3.5 21:34:30 40° S 21:36:25 81° WSW 21:41:35 10° NNW
NOSS 3-3 (A) 3.5 21:34:27 29° SSW 21:37:02 67° ESE 21:42:53 10° NE
BREEZE-M DEB (TANK) 3.8 21:33:00 10° SW 21:36:17 32° SW 21:36:17 32° SW
Cosmos 1933 4.2 21:44:19 34° ENE 21:44:19 34° ENE 21:46:57 10° NNE
Fengyun 1C 4.5 21:42:41 49° SSE 21:44:08 80° ENE 21:49:25 10° NNW
Cosmos 2084 Rocket 3.8 21:45:53 10° NNW 21:49:59 51° NE 21:50:19 50° ENE
Terra 4.4 21:48:05 10° WSW 21:50:22 13° W 21:52:42 10° WNW
Helios 1B rocket 4.4 21:51:51 14° NE 21:51:51 14° NE 21:53:11 10° NNE
IRS-1C Rocket 4.1 21:51:54 46° S 21:53:27 73° WSW 21:58:44 10° NNW
Cosmos 1758 Rocket 3.4 21:49:08 10° N 21:53:31 75° E 21:53:42 73° ESE
IRS-P2 Rocket 4.5 21:52:32 55° SSE 21:53:45 88° ENE 21:59:01 10° NNW
CZ-2C R/B 3.8 21:55:17 30° NNW 21:55:17 30° NNW 21:56:53 10° NNW
Cosmos 1464 Rocket 4.4 21:53:23 39° ESE 21:54:13 41° E 21:59:56 10° NNE
Milstar 3 4.3 21:48:04 10° WSW 21:54:22 27° S 21:54:30 27° S
Cosmos 1513 Rocket 4.5 21:56:21 48° SSE 21:58:00 66° E 22:04:09 10° NNE
Gbstr 26 Del rocket 2.9 21:56:18 10° WNW 22:00:52 74° WSW 22:00:52 74° WSW
Cosmos 2360 Rocket 3.7 21:57:46 10° N 22:02:25 25° NE 22:04:14 21° E
NOSS 3-3 (C) 3.5 22:02:53 39° SSW 22:04:56 88° ESE 22:10:59 10° NE
ISS -2.1 22:04:00 10° W 22:07:06 34° NNW 22:08:14 26° NNE
Geosat 3.9 22:06:05 10° NNE 22:11:07 83° WNW 22:12:24 51° SW
Cosmos 2237 4.2 22:06:28 10° NNW 22:12:13 79° WSW 22:13:13 61° S
Ariane Rocket 3.6 22:12:25 40° SW 22:13:32 47° W 22:18:24 10° NNW
USA 305 3.7 22:10:10 10° NW 22:13:09 40° NNW 22:13:09 40° NNW
Cosmos 1602 Rocket 3.7 22:14:52 10° N 22:18:42 68° NNE 22:18:42 68° NNE
SL-4 R/B 4.5 22:17:37 10° W 22:18:10 12° WSW 22:18:10 12° WSW
Cosmos 2219 Rocket 3.9 22:15:32 10° N 22:19:53 22° NE 22:21:48 19° ENE
Cosmos 1437 Rocket 3.8 22:21:47 39° NNW 22:21:47 39° NNW 22:24:14 10° N
Cosmos 2369 4.1 22:21:59 10° NW 22:27:31 51° WSW 22:28:18 48° SW
Cosmos 2034 Rocket 4.2 22:27:37 50° ESE 22:28:09 51° E 22:34:18 10° NNE
Cosmos 2082 Rocket 3.5 22:23:15 10° SW 22:28:33 38° WNW 22:33:52 10° N
Cosmos 2151 3.6 22:25:24 10° NNW 22:28:56 50° WNW 22:28:56 50° WNW
Cosmos 2322 Rocket 2.9 22:24:50 10° NNW 22:30:11 41° ENE 22:31:03 39° E
Meteor 1-5 Rocket 4.1 22:33:56 10° N 22:39:38 83° E 22:40:03 77° SE
USA 234 3.1 22:34:44 10° NE 22:41:17 72° SE 22:42:49 54° SSW
Cosmos 1763 Rocket 4.4 22:45:39 37° ENE 22:45:39 37° ENE 22:49:24 10° NNE
Okean 1-7 Rocket 4.0 22:43:28 10° N 22:47:08 60° NNW 22:47:08 60° NNW
Cosmos 1777 Rocket 4.2 22:44:13 10° NNW 22:49:16 62° ENE 22:49:16 62° ENE
Cosmos 2278 3.6 22:43:41 10° NNW 22:49:26 79° ENE 22:49:38 78° E
Helios 1A 3.9 22:45:52 10° N 22:48:45 43° NNW 22:48:45 43° NNW
COSMOS 2406 3.9 22:49:26 33° WSW 22:51:42 51° WNW 22:57:18 10° NNE
Cosmos 1606 Rocket 4.2 22:52:45 54° NNW 22:52:45 54° NNW 22:56:12 10° N
SL-16 R/B 2.2 22:51:09 10° NNW 22:56:47 72° WSW 22:56:47 72° WSW
Cosmos 1634 Rocket 4.3 22:57:50 48° E 22:57:50 48° E 23:03:42 10° NNE
Cosmos 1486 Rocket 4.0 22:55:56 10° NNW 23:00:50 78° NNW 23:00:50 78° NNW
Nadezhda 4 Rocket 4.0 22:56:11 10° NNW 23:02:16 67° W 23:02:51 63° SW
Cosmos 2098 Rocket 4.1 23:02:09 45° W 23:02:24 46° WNW 23:06:59 10° N
Cosmos 2333 Rocket 2.3 23:04:15 10° NNW 23:09:39 64° W 23:09:39 64° W
Meteor 2-2 Rocket 4.4 23:10:21 60° ENE 23:10:21 60° ENE 23:15:31 10° NNE
BREEZE-M DEB (TANK) 4.1 23:07:50 10° W 23:16:42 62° N 23:21:35 10° E
CZ-2C R/B 4.1 23:16:22 25° ENE 23:16:54 26° ENE 23:21:12 10° N
Cosmos 1833 4.3 23:17:41 65° ENE 23:17:41 65° ENE 23:22:40 10° NNE
Cosmos 1627 Rocket 4.4 23:11:04 10° N 23:17:29 87° E 23:17:52 80° SSE
Cosmos 2195 Rocket 4.4 23:14:11 10° NNW 23:20:24 72° W 23:20:43 71° WSW
Spot 4 4.3 23:23:21 59° N 23:23:21 59° N 23:27:15 10° NNW
Cosmos 2026 Rocket 3.9 23:20:34 10° N 23:26:57 77° W 23:27:17 75° SW
Aureole 1 Rocket 4.3 23:26:13 10° N 23:31:35 52° ENE 23:32:03 50° E
Cosmos 2297 Rocket 4.4 23:33:58 12° E 23:33:58 12° E 23:35:20 10° ENE
DNEPR-1 R/B 4.4 23:28:04 10° NW 23:33:34 75° WSW 23:33:34 75° WSW
Cosmos 2333 4.3 23:34:17 10° NNW 23:39:28 70° WNW 23:39:28 70° WNW
ALOS 2 3.7 23:43:55 42° NNW 23:43:55 42° NNW 23:46:54 10° NNW
ARIANE 5 R/B 3.8 23:44:33 38° NW 23:44:33 38° NW 23:47:30 10° NNW
Cosmos 2360 Rocket 2.7 23:41:12 10° NNW 23:45:57 51° WNW 23:45:57 51° WNW
Cosmos 2058 Rocket 4.3 23:48:52 39° NNW 23:48:52 39° NNW 23:51:52 10° N
Cosmos 468 Rocket 4.4 23:51:08 61° NE 23:51:08 61° NE 23:55:30 10° NNE
